This demonstration page uses our WeatherBlox Daily Observations layout. Learn more.

Left ArrowRight Arrow

Hourly Observations for September 17, 2018

Temp ( °F °C ) Dew Point ( °F °C ) Humidity (%) Winds ( mph kmh ) Pressure ( in mb ) Visibility ( mi km ) Precip ( " mm )
12:53 am 00:53 Clear 70 21.1 67 19.4 90 90 ESE 3 6 29.91 1013 10 16 0.00 0.00
1:53 am 01:53 Clear 69 20.6 67 19.4 93 93 SE 5 7 29.91 1013 10 16 0.00 0.00
2:41 am 02:41 Mostly Cloudy 69 20.6 67 19.4 93 93 Calm 29.91 1013 10 16 0.00 0.00
2:53 am 02:53 Cloudy 69 20.6 67 19.4 93 93 Calm 29.90 1013 10 16 0.00 0.00
3:20 am 03:20 Cloudy 69 20.6 68 20 96 96 Calm 29.91 1013 10 16 0.00 0.00
3:53 am 03:53 Cloudy 70 21.1 68 20 93 93 Calm 29.89 1012 10 16 0.00 0.00
4:09 am 04:09 Cloudy 70 21.1 68 20 93 93 Calm 29.91 1013 10 16 0.00 0.00
4:53 am 04:53 Cloudy 69 20.6 67 19.4 93 93 Calm 29.89 1012 10 16 0.00 0.00
5:53 am 05:53 Mostly Cloudy 69 20.6 67 19.4 93 93 ESE 3 6 29.90 1012 10 16 0.00 0.00
6:53 am 06:53 Cloudy 69 20.6 67 19.4 93 93 ESE 3 6 29.91 1013 10 16 0.00 0.00
7:53 am 07:53 Cloudy 69 20.6 67 19.4 93 93 SE 6 9 29.91 1013 10 16 0.00 0.00
8:53 am 08:53 Cloudy 70 21.1 68 20 93 93 SE 6 9 29.93 1014 10 16 0.00 0.00
9:53 am 09:53 Cloudy 72 22.2 67 19.4 84 84 SE 8 13 29.94 1014 10 16 0.00 0.00
10:53 am 10:53 Cloudy 74 23.3 67 19.4 79 79 SE 7 11 29.96 1014 10 16 0.00 0.00
11:23 am 11:23 Cloudy 76 24.4 68 20 77 77 SE 7 11 29.94 1014 10 16 0.00 0.00
11:53 am 11:53 Cloudy 75 23.9 67 19.4 76 76 SE 9 15 29.96 1015 10 16 0.00 0.00
12:25 pm 12:25 Cloudy 77 25 67 19.4 71 71 SE 8 13 29.91 1013 10 16 0.00 0.00
12:53 pm 12:53 Cloudy 79 26.1 67 19.4 67 67 SE 9 15 29.94 1014 10 16 0.00 0.00
1:06 pm 13:06 Cloudy 78 25.6 67 19.4 69 69 SE 10 17 29.91 1013 10 16 0.00 0.00
1:53 pm 13:53 Cloudy 79 26.1 66 18.9 65 65 SSE 8 13 29.92 1013 10 16 0.00 0.00
2:53 pm 14:53 Cloudy 80 26.7 66 18.9 62 62 SE 9 15 29.90 1012 10 16 0.00 0.00
3:53 pm 15:53 Cloudy 80 26.7 66 18.9 62 62 ESE 10 17 29.88 1012 10 16 0.00 0.00
4:53 pm 16:53 Cloudy 81 27.2 65 18.3 58 58 SE 9 15 29.86 1011 10 16 0.00 0.00
5:53 pm 17:53 Cloudy 81 27.2 66 18.9 61 61 SE 12 19 29.85 1011 10 16 0.00 0.00
6:53 pm 18:53 Cloudy 81 27.2 66 18.9 61 61 SE 12 19 29.86 1011 10 16 0.00 0.00
7:53 pm 19:53 Cloudy 79 26.1 66 18.9 65 65 SE 12 19 29.86 1011 10 16 0.00 0.00
8:53 pm 20:53 Clear 76 24.4 66 18.9 72 72 SSE 8 13 29.88 1012 10 16 0.00 0.00
9:53 pm 21:53 Clear 73 22.8 67 19.4 81 81 SE 7 11 29.89 1012 10 16 0.00 0.00
10:53 pm 22:53 Clear 73 22.8 66 18.9 79 79 SE 8 13 29.91 1013 10 16 0.00 0.00
11:53 pm 23:53 Clear 72 22.2 67 19.4 84 84 SSE 8 13 29.91 1013 10 16 0.00 0.00

Powered by AerisWeather